Tracking 25710 objects as of 6-Jul-2022
HD Live streaming from Space Station
objects crossing your sky now

STARLINK-2685

Track STARLINK-2685 now!
10-day predictions
STARLINK-2685 is classified as:


NORAD ID: 48468
Int'l Code: 2021-040AS
Perigee: 553.1 km
Apogee: 555.7 km
Inclination: 53.1 °
Period: 95.6 minutes
Semi major axis: 6925 km
RCS: Unknown
Launch date: May 9, 2021
Source: United States (US)
Launch site: AIR FORCE EASTERN TEST RANGE (AFETR)
aabbcc
Your satellite tracking list
Your tracking list is empty




NASA's NSSDC Master Catalog

Two Line Element Set (TLE):
1 48468U 21040AS  22187.17665681  .00000415  00000-0  46763-4 0  9997
2 48468  53.0565  98.4074 0001886  57.5333 302.5838 15.06390835 65423
Source of the keplerian elements: AFSPC